SL-16 DEB, 22347

Orbit data source: Space-Track

SL-16 DEB, 22347 is space debris in LEO originally from a launch on Fri, 25 Dec 1992 UTC launched from the Tyuratam Missile And Space Complex (TTMTR). Debris objects in space refer to the collection of defunct objects orbiting the Earth. Examples of debris include non-operational satellites, rocket bodies, and fragments generated from explosions, collisions, or faulty payload assembly.

Loading next visibility...
Identifier
22347, 1992-093AL
Orbit
LEO
Last TLE update
11 hours ago
Origin
Manufacturer
Unknown
Mission
Spacecraft
Bus & Motor
Unknown
Mass
Unknown
Launch date (UTC)
1992-12-25 (33 years ago)
Launch vehicle
Unknown
Launch site
Tyuratam Missile And Space Complex (TTMTR)
Object type
Payload
Rocket body
Debris
Shape & HBR
Unknown
Radar Cross Section
Small (<0.1 m²)

Expand to show TLE details & history

TLE from 11 hours ago
0 SL-16 DEB
1 22347U 92093AL  25186.74243259  .00001806  00000-0  10329-2 0  9991
2 22347  70.8364  84.9035 0158564 172.0608 258.2757 14.04742749641605
Epoch: 2025-07-05T17:49Z
TLE epoch observation values (Epoch: 2025-07-05T17:49:06.175Z)
Latitude
61.65862°
Longitude
-66.4867°
Altitude
912.539 km
Speed
7.389 km/s
True Right ascension
08h 19m 03s
True Declination
61° 31' 04"
Sunlit
Object was in daylight at epoch
Visualization orbit readout
Latitude
-63.24133°
Longitude
115.97061°
Altitude
878.057 km
Speed
7.424 km/s
Apparent Right ascension
02h 05m 43s
Apparent Declination
-69° 14' 53"
Sunlit
Object is in full shadow
Visualization observer readout
Local Sidereal Time
16:52:28
Azimuth
156.71° SSE
Elevation
-53.416°
Doppler factor
1
Orbital elements
Apogee altitude
990.383 km
Perigee altitude
760.354 km
Semi-major axis
7,253.505 km
Eccentricity
0.01586
Inclination
70.8364°
RAAN
84.9035°
Arg. of periapsis
172.0608°
True anomaly
Unknown
Mean anomaly
258.2757°
Eccentric anomaly
Unknown
Mean motion
3.51335 °/min
Orbital period
102.47 mins
BSTAR
0.0010329
Loading maneuver chart data...
Loading SW <> Apogee altitude chart data...
Loading historical data...
Loading historical data...
Loading historical data...
Loading historical data...
Loading historical data...
Loading historical data...
Loading historical data...

SL-16 DEB Visibility forecast

Observer location: undefined°, undefined°

Span
Click to sort rows by Start time (UTC) header in descending order
Start Az.
Max El. time (UTC)
Max El. Az.
Max El.
End time (UTC)
End Az.
9 mins2025-07-06 17:32:12.935Z152.075° SSE2025-07-06 17:36:12.935Z101.536° ESE25.995°2025-07-06 17:41:12.935Z45.74° ENE
10 mins2025-07-06 19:16:12.935Z233.118° WSW2025-07-06 19:21:12.935Z310.992° NW34.627°2025-07-06 19:26:12.935Z10.038° NNE
9 mins2025-07-07 04:15:12.935Z336.748° NNW2025-07-07 04:19:12.935Z295.818° NW45°2025-07-07 04:24:12.935Z158.316° S
|